{"data":{"norad_id":61569,"intl_designator":"2024-185T","name":"QIANFAN-36","alt_names":[],"object_type":"PAYLOAD","status":"ACTIVE","operator":null,"country":"PRC","launch_date":"2024-10-15","launch_site_code":"TAISC","launch_vehicle":null,"mission":null,"orbit_class":"UNKNOWN","rcs_meters":null,"size_class":null,"mass_kg":null,"dimensions":null,"purposes":[],"wikipedia_slug":null,"has_3d_model":false,"image_url":null,"decayed_at":null,"tle_current":{"epoch":"2026-05-25T03:50:50.964576Z","epoch_age_seconds":58429,"freshness":"FRESH","line1":"1 61569U 24185T   26145.16031209  .00000134  00000+0  17503-3 0  9993","line2":"2 61569  88.9808  64.0036 0004351 302.3980  57.6752 13.55631243 90067","mean_motion":13.55631243,"eccentricity":0.0004351,"inclination_deg":88.9808,"raan_deg":64.0036,"arg_perigee_deg":302.398,"mean_anomaly_deg":57.6752,"bstar":0.00017503,"rev_number":9006,"period_min":106.22357720329,"perigee_km":1048.3790802944,"apogee_km":1054.8444476688,"semimajor_km":7429.7487639816,"source":"CELESTRAK","updated_at":"2026-05-25T13:38:02.417660Z"}}}